Year,Month,Day,Hour,Minute,Value (Times are PST for windspeed in km/hr)
2007,01,06,00,00,18.40
2007,01,06,00,01,19.00
2007,01,06,00,02,22.50
2007,01,06,00,03,28.50
2007,01,06,00,04,25.90
2007,01,06,00,05,21.70
2007,01,06,00,06,20.10
2007,01,06,00,07,20.00
2007,01,06,00,08,19.00
2007,01,06,00,09,22.70
2007,01,06,00,10,24.50
2007,01,06,00,11,22.00
2007,01,06,00,12,23.10
2007,01,06,00,13,22.20
2007,01,06,00,14,21.60
2007,01,06,00,15,20.70
2007,01,06,00,16,24.40
2007,01,06,00,17,30.60
2007,01,06,00,18,26.50
2007,01,06,00,19,37.10
2007,01,06,00,20,34.90
2007,01,06,00,21,27.00
2007,01,06,00,22,33.90
2007,01,06,00,23,29.40
2007,01,06,00,24,29.70
2007,01,06,00,25,24.40
2007,01,06,00,26,20.40
2007,01,06,00,27,25.30
2007,01,06,00,28,22.30
2007,01,06,00,29,25.60
2007,01,06,00,30,22.80
2007,01,06,00,31,21.80
2007,01,06,00,32,31.50
2007,01,06,00,33,27.40
2007,01,06,00,34,24.60
2007,01,06,00,35,34.90
2007,01,06,00,36,27.00
2007,01,06,00,37,24.90
2007,01,06,00,38,26.30
2007,01,06,00,39,28.80
2007,01,06,00,40,24.40
2007,01,06,00,41,28.80
2007,01,06,00,42,23.00
2007,01,06,00,43,26.90
2007,01,06,00,44,24.90
2007,01,06,00,45,23.10
2007,01,06,00,46,27.70
2007,01,06,00,47,27.70
2007,01,06,00,48,31.40
2007,01,06,00,49,21.90
2007,01,06,00,50,19.50
2007,01,06,00,51,24.90
2007,01,06,00,52,23.10
2007,01,06,00,53,27.40
2007,01,06,00,54,31.20
2007,01,06,00,55,21.80
2007,01,06,00,56,30.20
2007,01,06,00,57,21.20
2007,01,06,00,58,25.10
2007,01,06,00,59,29.40
2007,01,06,01,00,22.20
2007,01,06,01,01,22.70
2007,01,06,01,02,24.10
2007,01,06,01,03,26.20
2007,01,06,01,04,26.80
2007,01,06,01,05,28.60
2007,01,06,01,06,33.90
2007,01,06,01,07,21.80
2007,01,06,01,08,19.80
2007,01,06,01,09,35.70
2007,01,06,01,10,20.20
2007,01,06,01,11,14.70
2007,01,06,01,12,20.60
2007,01,06,01,13,22.60
2007,01,06,01,14,20.20
2007,01,06,01,15,30.00
2007,01,06,01,16,30.70
2007,01,06,01,17,27.40
2007,01,06,01,18,33.90
2007,01,06,01,19,29.00
2007,01,06,01,20,21.60
2007,01,06,01,21,24.20
2007,01,06,01,22,28.40
2007,01,06,01,23,19.00
2007,01,06,01,24,19.40
2007,01,06,01,25,22.30
2007,01,06,01,26,22.30
2007,01,06,01,27,22.00
2007,01,06,01,28,25.90
2007,01,06,01,29,24.80
2007,01,06,01,30,23.80
2007,01,06,01,31,17.40
2007,01,06,01,32,23.70
2007,01,06,01,33,23.40
2007,01,06,01,34,19.00
2007,01,06,01,35,22.30
2007,01,06,01,36,29.00
2007,01,06,01,37,28.00
2007,01,06,01,38,19.20
2007,01,06,01,39,17.10
2007,01,06,01,40,19.60
2007,01,06,01,41,21.70
2007,01,06,01,42,21.80
2007,01,06,01,43,14.80
2007,01,06,01,44,24.80
2007,01,06,01,45,17.60
2007,01,06,01,46,20.00
2007,01,06,01,47,15.70
2007,01,06,01,48,13.00
2007,01,06,01,49,15.20
2007,01,06,01,50,11.20
2007,01,06,01,51,10.90
2007,01,06,01,52,12.00
2007,01,06,01,53,8.30
2007,01,06,01,54,9.20
2007,01,06,01,55,16.70
2007,01,06,01,56,17.90
2007,01,06,01,57,12.70
2007,01,06,01,58,11.00
2007,01,06,01,59,8.30
2007,01,06,02,00,7.40
2007,01,06,02,01,7.20
2007,01,06,02,02,10.10
2007,01,06,02,03,11.30
2007,01,06,02,04,13.70
2007,01,06,02,05,18.20
2007,01,06,02,06,12.60
2007,01,06,02,07,11.80
2007,01,06,02,08,14.40
2007,01,06,02,09,28.30
2007,01,06,02,10,23.60
2007,01,06,02,11,19.80
2007,01,06,02,12,23.20
2007,01,06,02,13,18.30
2007,01,06,02,14,16.90
2007,01,06,02,15,9.80
2007,01,06,02,16,23.40
2007,01,06,02,17,23.60
2007,01,06,02,18,17.00
2007,01,06,02,19,18.00
2007,01,06,02,20,17.70
2007,01,06,02,21,26.90
2007,01,06,02,22,23.80
2007,01,06,02,23,28.50
2007,01,06,02,24,24.70
2007,01,06,02,25,27.80
2007,01,06,02,26,28.30
2007,01,06,02,27,23.80
2007,01,06,02,28,25.50
2007,01,06,02,29,18.30
2007,01,06,02,30,21.30
2007,01,06,02,31,24.60
2007,01,06,02,32,23.80
2007,01,06,02,33,22.00
2007,01,06,02,34,25.90
2007,01,06,02,35,22.90
2007,01,06,02,36,20.00
2007,01,06,02,37,23.60
2007,01,06,02,38,24.30
2007,01,06,02,39,23.20
2007,01,06,02,40,30.20
2007,01,06,02,41,22.40
2007,01,06,02,42,23.30
2007,01,06,02,43,21.70
2007,01,06,02,44,25.80
2007,01,06,02,45,26.10
2007,01,06,02,46,25.60
2007,01,06,02,47,22.60
2007,01,06,02,48,18.00
2007,01,06,02,49,17.00
2007,01,06,02,50,26.00
2007,01,06,02,51,20.10
2007,01,06,02,52,20.50
2007,01,06,02,53,17.80
2007,01,06,02,54,24.90
2007,01,06,02,55,19.20
2007,01,06,02,56,19.20
2007,01,06,02,57,24.10
2007,01,06,02,58,21.80
2007,01,06,02,59,18.60
2007,01,06,03,00,17.40
2007,01,06,03,01,23.00
2007,01,06,03,02,23.50
2007,01,06,03,03,21.10
2007,01,06,03,04,20.90
2007,01,06,03,05,24.80
2007,01,06,03,06,20.90
2007,01,06,03,07,18.20
2007,01,06,03,08,22.50
2007,01,06,03,09,23.30
2007,01,06,03,10,32.60
2007,01,06,03,11,21.60
2007,01,06,03,12,25.40
2007,01,06,03,13,24.90
2007,01,06,03,14,24.70
2007,01,06,03,15,22.80
2007,01,06,03,16,22.80
2007,01,06,03,17,26.30
2007,01,06,03,18,23.50
2007,01,06,03,19,20.70
2007,01,06,03,20,29.30
2007,01,06,03,21,25.90
2007,01,06,03,22,24.00
2007,01,06,03,23,27.10
2007,01,06,03,24,27.60
2007,01,06,03,25,29.00
2007,01,06,03,26,21.70
2007,01,06,03,27,26.30
2007,01,06,03,28,18.20
2007,01,06,03,29,20.90
2007,01,06,03,30,20.90
2007,01,06,03,31,21.50
2007,01,06,03,32,22.50
2007,01,06,03,33,23.70
2007,01,06,03,34,26.00
2007,01,06,03,35,23.10
2007,01,06,03,36,24.10
2007,01,06,03,37,29.00
2007,01,06,03,38,25.10
2007,01,06,03,39,18.30
2007,01,06,03,40,18.50
2007,01,06,03,41,23.40
2007,01,06,03,42,28.40
2007,01,06,03,43,22.60
2007,01,06,03,44,26.40
2007,01,06,03,45,16.40
2007,01,06,03,46,18.30
2007,01,06,03,47,24.40
2007,01,06,03,48,30.40
2007,01,06,03,49,22.20
2007,01,06,03,50,30.70
2007,01,06,03,51,27.60
2007,01,06,03,52,21.40
2007,01,06,03,53,26.20
2007,01,06,03,54,20.40
2007,01,06,03,55,19.90
2007,01,06,03,56,20.20
2007,01,06,03,57,25.60
2007,01,06,03,58,24.40
2007,01,06,03,59,19.90
2007,01,06,04,00,17.60
2007,01,06,04,01,22.90
2007,01,06,04,02,22.00
2007,01,06,04,03,20.60
2007,01,06,04,04,22.70
2007,01,06,04,05,20.90
2007,01,06,04,06,19.80
2007,01,06,04,07,19.70
2007,01,06,04,08,19.00
2007,01,06,04,09,18.20
2007,01,06,04,10,13.30
2007,01,06,04,11,11.50
2007,01,06,04,12,17.00
2007,01,06,04,13,24.40
2007,01,06,04,14,22.90
2007,01,06,04,15,20.60
2007,01,06,04,16,22.60
2007,01,06,04,17,25.20
2007,01,06,04,18,22.60
2007,01,06,04,19,21.90
2007,01,06,04,20,17.70
2007,01,06,04,21,21.30
2007,01,06,04,22,20.20
2007,01,06,04,23,17.20
2007,01,06,04,24,17.20
2007,01,06,04,25,22.10
2007,01,06,04,26,19.00
2007,01,06,04,27,16.80
2007,01,06,04,28,15.00
2007,01,06,04,29,18.10
2007,01,06,04,30,17.80
2007,01,06,04,31,17.80
2007,01,06,04,32,15.60
2007,01,06,04,33,19.10
2007,01,06,04,34,18.00
2007,01,06,04,35,17.30
2007,01,06,04,36,17.70
2007,01,06,04,37,19.20
2007,01,06,04,38,24.10
2007,01,06,04,39,18.20
2007,01,06,04,40,14.90
2007,01,06,04,41,8.70
2007,01,06,04,42,9.60
2007,01,06,04,43,12.30
2007,01,06,04,44,13.40
2007,01,06,04,45,18.70
2007,01,06,04,46,14.40
2007,01,06,04,47,15.00
2007,01,06,04,48,20.30
2007,01,06,04,49,24.60
2007,01,06,04,50,16.60
2007,01,06,04,51,22.50
2007,01,06,04,52,21.10
2007,01,06,04,53,23.40
2007,01,06,04,54,20.80
2007,01,06,04,55,22.50
2007,01,06,04,56,17.30
2007,01,06,04,57,21.40
2007,01,06,04,58,17.70
2007,01,06,04,59,18.90
2007,01,06,05,00,18.90
2007,01,06,05,01,20.10
2007,01,06,05,02,18.10
2007,01,06,05,03,17.80
2007,01,06,05,04,20.00
2007,01,06,05,05,16.40
2007,01,06,05,06,13.20
2007,01,06,05,07,12.80
2007,01,06,05,08,15.30
2007,01,06,05,09,13.40
2007,01,06,05,10,9.80
2007,01,06,05,11,18.20
2007,01,06,05,12,19.30
2007,01,06,05,13,9.70
2007,01,06,05,14,18.40
2007,01,06,05,15,12.10
2007,01,06,05,16,9.70
2007,01,06,05,17,7.60
2007,01,06,05,18,11.50
2007,01,06,05,19,7.80
2007,01,06,05,20,10.90
2007,01,06,05,21,7.40
2007,01,06,05,22,9.60
2007,01,06,05,23,12.20
2007,01,06,05,24,8.70
2007,01,06,05,25,8.40
2007,01,06,05,26,10.40
2007,01,06,05,27,6.60
2007,01,06,05,28,7.50
2007,01,06,05,29,2.00
2007,01,06,05,30,1.60
2007,01,06,05,31,9.50
2007,01,06,05,32,16.40
2007,01,06,05,33,22.20
2007,01,06,05,34,22.50
2007,01,06,05,35,22.50
2007,01,06,05,36,22.50
2007,01,06,05,37,22.50
2007,01,06,05,38,22.50
2007,01,06,05,39,20.40
2007,01,06,05,40,10.80
2007,01,06,05,41,12.30
2007,01,06,05,42,13.90
2007,01,06,05,43,13.20
2007,01,06,05,44,11.50
2007,01,06,05,45,10.00
2007,01,06,05,46,10.30
2007,01,06,05,47,10.00
2007,01,06,05,48,10.90
2007,01,06,05,49,11.30
2007,01,06,05,50,12.70
2007,01,06,05,51,12.90
2007,01,06,05,52,12.90
2007,01,06,05,53,12.90
2007,01,06,05,54,12.90
2007,01,06,05,55,14.30
2007,01,06,05,56,10.00
2007,01,06,05,57,9.10
2007,01,06,05,58,7.60
2007,01,06,05,59,8.50
2007,01,06,06,00,10.30
2007,01,06,06,01,6.20
2007,01,06,06,02,7.80
2007,01,06,06,03,6.40
2007,01,06,06,04,6.40
2007,01,06,06,05,5.50
2007,01,06,06,06,6.90
2007,01,06,06,07,5.30
2007,01,06,06,08,3.90
2007,01,06,06,09,2.50
2007,01,06,06,10,5.30
2007,01,06,06,11,4.30
2007,01,06,06,12,2.50
2007,01,06,06,13,3.40
2007,01,06,06,14,2.30
2007,01,06,06,15,0.30
2007,01,06,06,16,2.30
2007,01,06,06,17,3.30
2007,01,06,06,18,4.10
2007,01,06,06,19,4.30
2007,01,06,06,20,5.40
2007,01,06,06,21,4.40
2007,01,06,06,22,2.10
2007,01,06,06,23,3.80
2007,01,06,06,24,3.70
2007,01,06,06,25,2.80
2007,01,06,06,26,3.40
2007,01,06,06,27,3.20
2007,01,06,06,28,3.80
2007,01,06,06,29,3.70
2007,01,06,06,30,2.20
2007,01,06,06,31,2.70
2007,01,06,06,32,2.20
2007,01,06,06,33,1.70
2007,01,06,06,34,3.00
2007,01,06,06,35,1.40
2007,01,06,06,36,3.00
2007,01,06,06,37,1.80
2007,01,06,06,38,1.60
2007,01,06,06,39,1.20
2007,01,06,06,40,1.30
2007,01,06,06,41,2.90
2007,01,06,06,42,2.40
2007,01,06,06,43,4.80
2007,01,06,06,44,6.80
2007,01,06,06,45,6.10
2007,01,06,06,46,7.30
2007,01,06,06,47,6.90
2007,01,06,06,48,6.60
2007,01,06,06,49,7.00
2007,01,06,06,50,6.60
2007,01,06,06,51,4.60
2007,01,06,06,52,4.70
2007,01,06,06,53,4.70
2007,01,06,06,54,3.30
2007,01,06,06,55,2.50
2007,01,06,06,56,3.10
2007,01,06,06,57,3.70
2007,01,06,06,58,3.40
2007,01,06,06,59,2.60
2007,01,06,07,00,2.30
2007,01,06,07,01,3.30
2007,01,06,07,02,5.00
2007,01,06,07,03,5.20
2007,01,06,07,04,4.80
2007,01,06,07,05,3.70
2007,01,06,07,06,4.10
2007,01,06,07,07,4.20
2007,01,06,07,08,4.40
2007,01,06,07,09,3.80
2007,01,06,07,10,2.90
2007,01,06,07,11,2.90
2007,01,06,07,12,2.10
2007,01,06,07,13,4.30
2007,01,06,07,14,3.00
2007,01,06,07,15,4.70
2007,01,06,07,16,4.80
2007,01,06,07,17,3.60
2007,01,06,07,18,3.60
2007,01,06,07,19,2.70
2007,01,06,07,20,3.60
2007,01,06,07,21,2.90
2007,01,06,07,22,3.50
2007,01,06,07,23,4.20
2007,01,06,07,24,3.50
2007,01,06,07,25,4.40
2007,01,06,07,26,5.30
2007,01,06,07,27,7.60
2007,01,06,07,28,6.00
2007,01,06,07,29,5.10
2007,01,06,07,30,3.60
2007,01,06,07,31,4.20
2007,01,06,07,32,3.80
2007,01,06,07,33,3.90
2007,01,06,07,34,4.80
2007,01,06,07,35,5.50
2007,01,06,07,36,6.60
2007,01,06,07,37,6.70
2007,01,06,07,38,3.80
2007,01,06,07,39,4.20
2007,01,06,07,40,3.10
2007,01,06,07,41,3.20
2007,01,06,07,42,5.70
2007,01,06,07,43,2.30
2007,01,06,07,44,1.40
2007,01,06,07,45,1.30
2007,01,06,07,46,0.70
2007,01,06,07,47,1.50
2007,01,06,07,48,2.10
2007,01,06,07,49,2.50
2007,01,06,07,50,5.00
2007,01,06,07,51,2.90
2007,01,06,07,52,1.60
2007,01,06,07,53,2.30
2007,01,06,07,54,3.10
2007,01,06,07,55,4.00
2007,01,06,07,56,3.60
2007,01,06,07,57,2.90
2007,01,06,07,58,3.00
2007,01,06,07,59,1.40
2007,01,06,08,00,1.10
2007,01,06,08,01,1.30
2007,01,06,08,02,3.40
2007,01,06,08,03,4.00
2007,01,06,08,04,3.80
2007,01,06,08,05,4.50
2007,01,06,08,06,5.20
2007,01,06,08,07,5.00
2007,01,06,08,08,4.10
2007,01,06,08,09,4.60
2007,01,06,08,10,4.80
2007,01,06,08,11,4.80
2007,01,06,08,12,4.80
2007,01,06,08,13,5.60
2007,01,06,08,14,4.50
2007,01,06,08,15,4.30
2007,01,06,08,16,7.80
2007,01,06,08,17,9.90
2007,01,06,08,18,12.30
2007,01,06,08,19,10.60
2007,01,06,08,20,7.00
2007,01,06,08,21,8.50
2007,01,06,08,22,6.10
2007,01,06,08,23,4.80
2007,01,06,08,24,5.70
2007,01,06,08,25,12.10
2007,01,06,08,26,12.50
2007,01,06,08,27,13.20
2007,01,06,08,28,12.40
2007,01,06,08,29,11.80
2007,01,06,08,30,10.40
2007,01,06,08,31,9.10
2007,01,06,08,32,7.80
2007,01,06,08,33,12.10
2007,01,06,08,34,10.90
2007,01,06,08,35,11.10
2007,01,06,08,36,10.20
2007,01,06,08,37,10.40
2007,01,06,08,38,8.50
2007,01,06,08,39,9.40
2007,01,06,08,40,11.30
2007,01,06,08,41,9.60
2007,01,06,08,42,11.10
2007,01,06,08,43,11.00
2007,01,06,08,44,14.30
2007,01,06,08,45,13.70
2007,01,06,08,46,9.90
2007,01,06,08,47,15.50
2007,01,06,08,48,19.20
2007,01,06,08,49,11.00
2007,01,06,08,50,10.50
2007,01,06,08,51,7.20
2007,01,06,08,52,9.50
2007,01,06,08,53,5.70
2007,01,06,08,54,9.80
2007,01,06,08,55,8.80
2007,01,06,08,56,6.10
2007,01,06,08,57,7.80
2007,01,06,08,58,7.60
2007,01,06,08,59,10.40
2007,01,06,09,00,12.70
2007,01,06,09,01,13.50
2007,01,06,09,02,12.70
2007,01,06,09,03,10.20
2007,01,06,09,04,12.30
2007,01,06,09,05,12.80
2007,01,06,09,06,17.80
2007,01,06,09,07,17.00
2007,01,06,09,08,17.60
2007,01,06,09,09,9.70
2007,01,06,09,10,13.80
2007,01,06,09,11,9.10
2007,01,06,09,12,8.60
2007,01,06,09,13,8.20
2007,01,06,09,14,5.40
2007,01,06,09,15,5.40
2007,01,06,09,16,7.10
2007,01,06,09,17,4.60
2007,01,06,09,18,3.70
2007,01,06,09,19,3.80
2007,01,06,09,20,8.20
2007,01,06,09,21,11.80
2007,01,06,09,22,11.80
2007,01,06,09,23,13.30
2007,01,06,09,24,16.70
2007,01,06,09,25,10.50
2007,01,06,09,26,9.50
2007,01,06,09,27,8.90
2007,01,06,09,28,11.50
2007,01,06,09,29,7.80
2007,01,06,09,30,12.30
2007,01,06,09,31,15.20
2007,01,06,09,32,7.60
2007,01,06,09,33,9.70
2007,01,06,09,34,7.60
2007,01,06,09,35,9.80
2007,01,06,09,36,13.30
2007,01,06,09,37,10.60
2007,01,06,09,38,9.30
2007,01,06,09,39,16.40
2007,01,06,09,40,15.60
2007,01,06,09,41,16.80
2007,01,06,09,42,14.20
2007,01,06,09,43,13.20
2007,01,06,09,44,11.90
2007,01,06,09,45,12.50
2007,01,06,09,46,10.90
2007,01,06,09,47,12.70
2007,01,06,09,48,17.80
2007,01,06,09,49,16.50
2007,01,06,09,50,14.10
2007,01,06,09,51,18.50
2007,01,06,09,52,17.40
2007,01,06,09,53,12.10
2007,01,06,09,54,9.60
2007,01,06,09,55,12.00
2007,01,06,09,56,18.50
2007,01,06,09,57,22.30
2007,01,06,09,58,21.80
2007,01,06,09,59,18.30
2007,01,06,10,00,19.20
2007,01,06,10,01,19.70
2007,01,06,10,02,24.10
2007,01,06,10,03,29.40
2007,01,06,10,04,31.70
2007,01,06,10,05,29.00
2007,01,06,10,06,33.40
2007,01,06,10,07,31.70
2007,01,06,10,08,31.40
2007,01,06,10,09,29.60
2007,01,06,10,10,20.70
2007,01,06,10,11,21.50
2007,01,06,10,12,25.30
2007,01,06,10,13,23.10
2007,01,06,10,14,18.50
2007,01,06,10,15,17.40
2007,01,06,10,16,20.60
2007,01,06,10,17,19.50
2007,01,06,10,18,12.70
2007,01,06,10,19,17.70
2007,01,06,10,20,15.40
2007,01,06,10,21,18.30
2007,01,06,10,22,20.50
2007,01,06,10,23,29.20
2007,01,06,10,24,16.40
2007,01,06,10,25,14.30
2007,01,06,10,26,12.10
2007,01,06,10,27,7.00
2007,01,06,10,28,14.60
2007,01,06,10,29,14.40
2007,01,06,10,30,13.40
2007,01,06,10,31,15.40
2007,01,06,10,32,13.90
2007,01,06,10,33,9.90
2007,01,06,10,34,10.10
2007,01,06,10,35,12.90
2007,01,06,10,36,10.50
2007,01,06,10,37,8.80
2007,01,06,10,38,15.60
2007,01,06,10,39,15.10
2007,01,06,10,40,11.30
2007,01,06,10,41,12.10
2007,01,06,10,42,13.40
2007,01,06,10,43,13.60
2007,01,06,10,44,15.30
2007,01,06,10,45,12.90
2007,01,06,10,46,17.60
2007,01,06,10,47,19.00
2007,01,06,10,48,16.50
2007,01,06,10,49,11.80
2007,01,06,10,50,12.40
2007,01,06,10,51,11.80
2007,01,06,10,52,13.80
2007,01,06,10,53,11.10
2007,01,06,10,54,13.30
2007,01,06,10,55,14.10
2007,01,06,10,56,10.90
2007,01,06,10,57,8.80
2007,01,06,10,58,12.00
2007,01,06,10,59,15.60
2007,01,06,11,00,9.70
2007,01,06,11,01,13.50
2007,01,06,11,02,14.20
2007,01,06,11,03,15.00
2007,01,06,11,04,8.20
2007,01,06,11,05,7.00
2007,01,06,11,06,9.30
2007,01,06,11,07,9.80
2007,01,06,11,08,11.50
2007,01,06,11,09,11.40
2007,01,06,11,10,17.90
2007,01,06,11,11,12.30
2007,01,06,11,12,14.30
2007,01,06,11,13,18.50
2007,01,06,11,14,18.50
2007,01,06,11,15,15.40
2007,01,06,11,16,9.70
2007,01,06,11,17,10.80
2007,01,06,11,18,15.70
2007,01,06,11,19,17.00
2007,01,06,11,20,19.20
2007,01,06,11,21,18.60
2007,01,06,11,22,13.50
2007,01,06,11,23,11.60
2007,01,06,11,24,16.70
2007,01,06,11,25,17.30
2007,01,06,11,26,13.50
2007,01,06,11,27,15.40
2007,01,06,11,28,18.60
2007,01,06,11,29,15.00
2007,01,06,11,30,11.70
2007,01,06,11,31,11.90
2007,01,06,11,32,13.70
2007,01,06,11,33,12.30
2007,01,06,11,34,15.70
2007,01,06,11,35,13.30
2007,01,06,11,36,10.30
2007,01,06,11,37,14.40
2007,01,06,11,38,10.10
2007,01,06,11,39,12.80
2007,01,06,11,40,13.70
2007,01,06,11,41,12.90
2007,01,06,11,42,17.60
2007,01,06,11,43,17.50
2007,01,06,11,44,11.30
2007,01,06,11,45,13.20
2007,01,06,11,46,18.20
2007,01,06,11,47,18.10
2007,01,06,11,48,15.10
2007,01,06,11,49,15.70
2007,01,06,11,50,15.60
2007,01,06,11,51,15.50
2007,01,06,11,52,13.00
2007,01,06,11,53,12.80
2007,01,06,11,54,18.70
2007,01,06,11,55,15.80
2007,01,06,11,56,12.50
2007,01,06,11,57,9.60
2007,01,06,11,58,14.60
2007,01,06,11,59,16.10
2007,01,06,12,00,10.60
2007,01,06,12,01,14.50
2007,01,06,12,02,14.50
2007,01,06,12,03,14.50
2007,01,06,12,04,14.50
2007,01,06,12,05,14.50
2007,01,06,12,06,14.50
2007,01,06,12,07,9.70
2007,01,06,12,08,12.90
2007,01,06,12,09,15.60
2007,01,06,12,10,14.40
2007,01,06,12,11,9.80
2007,01,06,12,12,11.20
2007,01,06,12,13,14.60
2007,01,06,12,14,16.30
2007,01,06,12,15,13.70
2007,01,06,12,16,10.80
2007,01,06,12,17,9.70
2007,01,06,12,18,13.20
2007,01,06,12,19,11.70
2007,01,06,12,20,12.60
2007,01,06,12,21,13.00
2007,01,06,12,22,13.10
2007,01,06,12,23,13.60
2007,01,06,12,24,16.40
2007,01,06,12,25,11.30
2007,01,06,12,26,11.60
2007,01,06,12,27,14.90
2007,01,06,12,28,14.20
2007,01,06,12,29,15.10
2007,01,06,12,30,14.60
2007,01,06,12,31,11.20
2007,01,06,12,32,11.00
2007,01,06,12,33,10.30
2007,01,06,12,34,6.60
2007,01,06,12,35,14.30
2007,01,06,12,36,12.50
2007,01,06,12,37,12.30
2007,01,06,12,38,10.60
2007,01,06,12,39,10.00
2007,01,06,12,40,9.10
2007,01,06,12,41,10.80
2007,01,06,12,42,9.20
2007,01,06,12,43,11.40
2007,01,06,12,44,12.20
2007,01,06,12,45,11.10
2007,01,06,12,46,9.70
2007,01,06,12,47,16.00
2007,01,06,12,48,16.80
2007,01,06,12,49,13.90
2007,01,06,12,50,14.80
2007,01,06,12,51,11.60
2007,01,06,12,52,16.20
2007,01,06,12,53,11.80
2007,01,06,12,54,10.70
2007,01,06,12,55,12.30
2007,01,06,12,56,10.70
2007,01,06,12,57,8.50
2007,01,06,12,58,10.00
2007,01,06,12,59,10.90
2007,01,06,13,00,13.30
2007,01,06,13,01,15.70
2007,01,06,13,02,15.40
2007,01,06,13,03,19.90
2007,01,06,13,04,14.50
2007,01,06,13,05,13.60
2007,01,06,13,06,16.80
2007,01,06,13,07,19.50
2007,01,06,13,08,20.00
2007,01,06,13,09,15.60
2007,01,06,13,10,9.90
2007,01,06,13,11,13.20
2007,01,06,13,12,11.70
2007,01,06,13,13,16.10
2007,01,06,13,14,16.00
2007,01,06,13,15,9.60
2007,01,06,13,16,9.60
2007,01,06,13,17,13.90
2007,01,06,13,18,17.60
2007,01,06,13,19,9.30
2007,01,06,13,20,9.70
2007,01,06,13,21,11.40
2007,01,06,13,22,12.00
2007,01,06,13,23,15.90
2007,01,06,13,24,14.10
2007,01,06,13,25,14.80
2007,01,06,13,26,19.00
2007,01,06,13,27,18.20
2007,01,06,13,28,10.10
2007,01,06,13,29,13.70
2007,01,06,13,30,18.50
2007,01,06,13,31,18.90
2007,01,06,13,32,14.20
2007,01,06,13,33,15.70
2007,01,06,13,34,15.20
2007,01,06,13,35,9.20
2007,01,06,13,36,10.90
2007,01,06,13,37,6.90
2007,01,06,13,38,15.60
2007,01,06,13,39,14.60
2007,01,06,13,40,14.50
2007,01,06,13,41,19.70
2007,01,06,13,42,22.90
2007,01,06,13,43,15.90
2007,01,06,13,44,17.80
2007,01,06,13,45,14.60
2007,01,06,13,46,10.50
2007,01,06,13,47,13.60
2007,01,06,13,48,10.60
2007,01,06,13,49,9.70
2007,01,06,13,50,15.90
2007,01,06,13,51,21.50
2007,01,06,13,52,12.00
2007,01,06,13,53,12.40
2007,01,06,13,54,9.60
2007,01,06,13,55,9.60
2007,01,06,13,56,11.50
2007,01,06,13,57,8.90
2007,01,06,13,58,11.70
2007,01,06,13,59,14.60
2007,01,06,14,00,20.30
2007,01,06,14,01,16.10
2007,01,06,14,02,8.80
2007,01,06,14,03,7.40
2007,01,06,14,04,8.10
2007,01,06,14,05,12.90
2007,01,06,14,06,11.30
2007,01,06,14,07,13.20
2007,01,06,14,08,9.50
2007,01,06,14,09,10.80
2007,01,06,14,10,9.60
2007,01,06,14,11,8.60
2007,01,06,14,12,15.40
2007,01,06,14,13,9.50
2007,01,06,14,14,8.50
2007,01,06,14,15,10.90
2007,01,06,14,16,8.10
2007,01,06,14,17,9.10
2007,01,06,14,18,4.80
2007,01,06,14,19,4.80
2007,01,06,14,20,6.50
2007,01,06,14,21,10.60
2007,01,06,14,22,12.50
2007,01,06,14,23,7.80
2007,01,06,14,24,10.90
2007,01,06,14,25,8.40
2007,01,06,14,26,11.70
2007,01,06,14,27,7.70
2007,01,06,14,28,5.60
2007,01,06,14,29,11.30
2007,01,06,14,30,12.90
2007,01,06,14,31,16.40
2007,01,06,14,32,18.90
2007,01,06,14,33,16.70
2007,01,06,14,34,21.70
2007,01,06,14,35,21.90
2007,01,06,14,36,19.50
2007,01,06,14,37,12.80
2007,01,06,14,38,19.50
2007,01,06,14,39,16.80
2007,01,06,14,40,10.40
2007,01,06,14,41,21.50
2007,01,06,14,42,19.60
2007,01,06,14,43,24.00
2007,01,06,14,44,14.80
2007,01,06,14,45,17.40
2007,01,06,14,46,9.90
2007,01,06,14,47,15.70
2007,01,06,14,48,6.50
2007,01,06,14,49,12.90
2007,01,06,14,50,12.30
2007,01,06,14,51,11.70
2007,01,06,14,52,13.70
2007,01,06,14,53,14.70
2007,01,06,14,54,16.20
2007,01,06,14,55,17.30
2007,01,06,14,56,9.10
2007,01,06,14,57,14.30
2007,01,06,14,58,14.70
2007,01,06,14,59,15.60
2007,01,06,15,00,13.90
2007,01,06,15,01,13.80
2007,01,06,15,02,11.20
2007,01,06,15,03,14.30
2007,01,06,15,04,12.60
2007,01,06,15,05,20.10
2007,01,06,15,06,14.80
2007,01,06,15,07,10.60
2007,01,06,15,08,11.90
2007,01,06,15,09,14.40
2007,01,06,15,10,13.30
2007,01,06,15,11,15.40
2007,01,06,15,12,21.30
2007,01,06,15,13,21.20
2007,01,06,15,14,16.70
2007,01,06,15,15,16.30
2007,01,06,15,16,17.00
2007,01,06,15,17,18.60
2007,01,06,15,18,13.50
2007,01,06,15,19,14.40
2007,01,06,15,20,11.20
2007,01,06,15,21,14.00
2007,01,06,15,22,12.50
2007,01,06,15,23,12.70
2007,01,06,15,24,16.20
2007,01,06,15,25,14.20
2007,01,06,15,26,15.70
2007,01,06,15,27,26.30
2007,01,06,15,28,20.20
2007,01,06,15,29,15.80
2007,01,06,15,30,16.20
2007,01,06,15,31,20.90
2007,01,06,15,32,16.60
2007,01,06,15,33,17.30
2007,01,06,15,34,21.80
2007,01,06,15,35,21.90
2007,01,06,15,36,18.80
2007,01,06,15,37,18.70
2007,01,06,15,38,21.10
2007,01,06,15,39,15.10
2007,01,06,15,40,16.70
2007,01,06,15,41,16.40
2007,01,06,15,42,15.30
2007,01,06,15,43,12.00
2007,01,06,15,44,22.70
2007,01,06,15,45,21.30
2007,01,06,15,46,21.80
2007,01,06,15,47,13.70
2007,01,06,15,48,13.40
2007,01,06,15,49,18.20
2007,01,06,15,50,17.10
2007,01,06,15,51,12.90
2007,01,06,15,52,11.70
2007,01,06,15,53,8.30
2007,01,06,15,54,8.90
2007,01,06,15,55,6.60
2007,01,06,15,56,7.10
2007,01,06,15,57,7.80
2007,01,06,15,58,9.10
2007,01,06,15,59,5.60
2007,01,06,16,00,6.00
2007,01,06,16,01,7.60
2007,01,06,16,02,6.80
2007,01,06,16,03,6.70
2007,01,06,16,04,10.20
2007,01,06,16,05,7.60
2007,01,06,16,06,6.70
2007,01,06,16,07,7.80
2007,01,06,16,08,8.90
2007,01,06,16,09,11.70
2007,01,06,16,10,7.80
2007,01,06,16,11,7.90
2007,01,06,16,12,8.00
2007,01,06,16,13,7.90
2007,01,06,16,14,7.10
2007,01,06,16,15,7.90
2007,01,06,16,16,8.70
2007,01,06,16,17,10.80
2007,01,06,16,18,13.60
2007,01,06,16,19,12.90
2007,01,06,16,20,12.90
2007,01,06,16,21,12.90
2007,01,06,16,22,12.90
2007,01,06,16,23,12.50
2007,01,06,16,24,11.30
2007,01,06,16,25,12.50
2007,01,06,16,26,10.10
2007,01,06,16,27,11.40
2007,01,06,16,28,9.70
2007,01,06,16,29,9.50
2007,01,06,16,30,13.70
2007,01,06,16,31,19.40
2007,01,06,16,32,22.80
2007,01,06,16,33,25.80
2007,01,06,16,34,17.30
2007,01,06,16,35,20.90
2007,01,06,16,36,16.60
2007,01,06,16,37,17.90
2007,01,06,16,38,15.00
2007,01,06,16,39,14.50
2007,01,06,16,40,15.70
2007,01,06,16,41,13.40
2007,01,06,16,42,9.50
2007,01,06,16,43,14.80
2007,01,06,16,44,11.30
2007,01,06,16,45,12.70
2007,01,06,16,46,9.50
2007,01,06,16,47,6.90
2007,01,06,16,48,7.00
2007,01,06,16,49,5.70
2007,01,06,16,50,6.20
2007,01,06,16,51,10.60
2007,01,06,16,52,7.20
2007,01,06,16,53,4.90
2007,01,06,16,54,4.80
2007,01,06,16,55,4.80
2007,01,06,16,56,4.80
2007,01,06,16,57,6.40
2007,01,06,16,58,9.60
2007,01,06,16,59,7.60
2007,01,06,17,00,7.60
2007,01,06,17,01,5.10
2007,01,06,17,02,4.70
2007,01,06,17,03,4.80
2007,01,06,17,04,7.20
2007,01,06,17,05,4.10
2007,01,06,17,06,5.00
2007,01,06,17,07,5.80
2007,01,06,17,08,4.50
2007,01,06,17,09,2.70
2007,01,06,17,10,4.70
2007,01,06,17,11,4.70
2007,01,06,17,12,1.80
2007,01,06,17,13,3.60
2007,01,06,17,14,4.00
2007,01,06,17,15,4.80
2007,01,06,17,16,4.80
2007,01,06,17,17,3.20
2007,01,06,17,18,2.30
2007,01,06,17,19,3.90
2007,01,06,17,20,4.80
2007,01,06,17,21,3.70
2007,01,06,17,22,5.20
2007,01,06,17,23,5.60
2007,01,06,17,24,4.90
2007,01,06,17,25,7.30
2007,01,06,17,26,6.90
2007,01,06,17,27,5.10
2007,01,06,17,28,7.10
2007,01,06,17,29,7.00
2007,01,06,17,30,8.10
2007,01,06,17,31,8.10
2007,01,06,17,32,5.20
2007,01,06,17,33,5.90